This is the latest recevied weather packets stored in our database for station/object WX5KDM. If no packets are shown the sender has not sent any weather packets the latest 10 day(s).
| Time | Temp. | Humidity | Pressure | Rain* | Wind** | Luminosity | Snow |
|---|---|---|---|---|---|---|---|
| 1787845381 | 26.67° C | 83% | 1017.2 hPa | 0 mm | - | - | - |
| 1787845077 | 26.11° C | 84% | 1017.4 hPa | 0 mm | - | - | - |
| 1787844773 | 26.11° C | 84% | 1017.3 hPa | 0 mm | - | - | - |
| 1787844472 | 26.11° C | 86% | 1017.2 hPa | 0 mm | - | - | - |
| 1787844167 | 25.56° C | 88% | 1017.3 hPa | 0 mm | - | - | - |
| 1787843860 | 24.44° C | 90% | 1017.4 hPa | 0 mm | - | - | - |
| 1787843555 | 24.44° C | 91% | 1017.2 hPa | 0 mm | - | - | - |
| 1787843252 | 24.44° C | 92% | 1017.3 hPa | 0 mm | - | - | - |
| 1787842947 | 24.44° C | 92% | 1017.5 hPa | 0 mm | - | - | - |
| 1787842647 | 24.44° C | 92% | 1017.2 hPa | 0 mm | - | - | - |
| 1787842342 | 24.44° C | 91% | 1017.5 hPa | 0 mm | - | - | - |
| 1787842042 | 24.44° C | 92% | 1017.2 hPa | 0 mm | - | - | - |
| 1787841738 | 23.89° C | 93% | 1017.2 hPa | 0 mm | - | - | - |
| 1787841434 | 23.33° C | 94% | 1017.1 hPa | 0 mm | - | - | - |
| 1787841128 | 23.33° C | 95% | 1017.1 hPa | 0 mm | - | - | - |
| 1787840824 | 23.33° C | 96% | 1017.2 hPa | 0 mm | - | - | - |
| 1787840518 | 22.78° C | 96% | 1017.2 hPa | 0 mm | - | - | - |
| 1787840213 | 22.78° C | 97% | 1017.1 hPa | 0 mm | - | - | - |
| 1787839912 | 22.78° C | 98% | 1017.1 hPa | 0 mm | - | - | - |
| 1787839608 | 22.78° C | 98% | 1017 hPa | 0 mm | - | - | - |
| 1787839307 | 22.78° C | 98% | 1017 hPa | 0 mm | - | - | - |
| 1787839001 | 22.78° C | 98% | 1016.7 hPa | 0 mm | - | - | - |
| 1787838700 | 22.22° C | 99% | 1016.8 hPa | 0 mm | - | - | - |
| 1787838399 | 22.78° C | 99% | 1016.8 hPa | 0 mm | - | - | - |
| 1787838098 | 22.78° C | 99% | 1016.8 hPa | 0 mm | - | - | - |
* Rain latest hour (hover to see other rain measurements)
** Current wind speed in m/s (hover to see current wind gust speed)